Weather History for Orange City, IA

Change the Weather History Date:

Saturday, February 2, 2013

  Actual Average Record
Temperature  
Mean Temperature 25 °F -  
Max Temperature 35 °F 29 °F 51 °F (2006)
Min Temperature 15 °F 13 °F -15 °F (1949)
Degree Days  
Heating Degree Days 40    
Moisture  
Dew Point 15 °F    
Average Humidity 77    
Maximum Humidity 93    
Minimum Humidity 63    
Precipitation  
Precipitation 0.01 in - - ()
Sea Level Pressure  
Sea Level Pressure 30.06 in    
Wind  
Wind Speed 10 mph (WNW)    
Max Wind Speed 34 mph    
Max Gust Speed 46 mph    
Visibility 8 miles    
Events Snow    
Averages and records for this station are not official NWS values.
T = Trace of Precipitation, MM = Missing Value Source: NWS Daily Summary

Daily Weather History Graph

Daily Weather History Graph

Search for Another Location

Airport:

Trip Planner

Search our weather history database for the weather conditions in past years. The results will help you decide how hot, cold, wet, or windy it might be!

Date:

Astronomy

Feb. 02, 2013 Rise Set
Actual Time 7:37 AM CST 5:38 PM CST
Civil Twilight 7:07 AM CST 6:08 PM CST
Nautical Twilight 6:33 AM CST 6:42 PM CST
Astronomical Twilight 6:00 AM CST 7:15 PM CST
Moon No Moon Rise 10:37 AM CST (2/2)
Length of Visible Light 11h 00m
Length of Day
10h 00m
Waning Gibbous, 59% of the Moon is Illuminated
Feb 2
Waning Gibbous
Feb 3
Last Quarter
Feb 10
New
Feb 17
First Quarter
Feb 25
Full

Hourly Weather History & Observations

Time (CST) Temp. Windchill Dew Point Humidity Pressure Visibility Wind Dir Wind Speed Gust Speed Precip Events Conditions
12:15 AM 19.4 °F 7.9 °F 14.0 °F 80% 30.03 in 10.0 mi NNW 10.4 mph 18.4 mph N/A   Scattered Clouds
12:35 AM 19.4 °F 8.6 °F 14.0 °F 80% 30.03 in 10.0 mi NNW 9.2 mph - N/A   Overcast
12:55 AM 19.4 °F 7.9 °F 14.0 °F 80% 30.04 in 10.0 mi NNW 10.4 mph - N/A   Overcast
1:15 AM 17.6 °F 5.0 °F 12.2 °F 79% 30.05 in 10.0 mi NNW 11.5 mph 16.1 mph N/A   Overcast
1:35 AM 17.6 °F 5.0 °F 12.2 °F 79% 30.04 in 10.0 mi NNW 11.5 mph - N/A   Overcast
1:55 AM 17.6 °F 6.4 °F 14.0 °F 86% 30.05 in 10.0 mi NNW 9.2 mph - N/A   Overcast
2:15 AM 17.6 °F 5.0 °F 12.2 °F 79% 30.06 in 10.0 mi NNW 11.5 mph - N/A   Overcast
2:35 AM 17.6 °F 6.4 °F 12.2 °F 79% 30.06 in 10.0 mi North 9.2 mph - N/A   Overcast
2:55 AM 17.6 °F 6.4 °F 12.2 °F 79% 30.07 in 10.0 mi North 9.2 mph - N/A   Overcast
3:15 AM 17.6 °F 6.4 °F 12.2 °F 79% 30.07 in 10.0 mi North 9.2 mph - N/A   Overcast
3:35 AM 17.6 °F 7.3 °F 12.2 °F 79% 30.08 in 10.0 mi NNW 8.1 mph - N/A   Mostly Cloudy
3:55 AM 17.6 °F 9.3 °F 12.2 °F 79% 30.09 in 10.0 mi NNW 5.8 mph - N/A   Mostly Cloudy
4:15 AM 15.8 °F 4.2 °F 10.4 °F 79% 30.09 in 10.0 mi North 9.2 mph - N/A   Overcast
4:35 AM 15.8 °F 4.2 °F 10.4 °F 79% 30.10 in 10.0 mi North 9.2 mph - N/A   Overcast
4:55 AM 15.8 °F 4.2 °F 10.4 °F 79% 30.10 in 10.0 mi North 9.2 mph - N/A   Overcast
5:15 AM 15.8 °F 4.2 °F 8.6 °F 73% 30.11 in 10.0 mi North 9.2 mph - N/A   Overcast
5:35 AM 15.8 °F 7.2 °F 8.6 °F 73% 30.12 in 10.0 mi North 5.8 mph - N/A   Overcast
6:15 AM 15.8 °F 8.6 °F 8.6 °F 73% 30.13 in 10.0 mi North 4.6 mph - N/A   Overcast
6:35 AM 15.8 °F 6.1 °F 8.6 °F 73% 30.13 in 10.0 mi North 6.9 mph - N/A   Overcast
6:55 AM 15.8 °F 8.6 °F 6.8 °F 68% 30.13 in 10.0 mi North 4.6 mph - N/A   Overcast
7:15 AM 15.8 °F 8.6 °F 6.8 °F 68% 30.13 in 10.0 mi North 4.6 mph - N/A   Overcast
7:35 AM 15.8 °F - 6.8 °F 68% 30.13 in 10.0 mi Calm Calm - N/A   Overcast
7:55 AM 15.8 °F - 6.8 °F 68% 30.13 in 10.0 mi Calm Calm - N/A   Overcast
8:15 AM 15.8 °F - 6.8 °F 68% 30.13 in 10.0 mi Calm Calm - N/A   Overcast
8:35 AM 15.8 °F - 6.8 °F 68% 30.14 in 10.0 mi Calm Calm - N/A   Overcast
8:55 AM 15.8 °F - 6.8 °F 68% 30.14 in 10.0 mi Calm Calm - N/A   Overcast
9:15 AM 15.8 °F 10.2 °F 6.8 °F 68% 30.14 in 10.0 mi West 3.5 mph - N/A   Overcast
9:35 AM 17.6 °F 12.3 °F 6.8 °F 63% 30.14 in 10.0 mi West 3.5 mph - N/A   Overcast
9:55 AM 17.6 °F 10.7 °F 6.8 °F 63% 30.14 in 10.0 mi West 4.6 mph - N/A   Overcast
10:15 AM 17.6 °F 12.3 °F 8.6 °F 68% 30.13 in 10.0 mi SW 3.5 mph - N/A   Overcast
10:35 AM 17.6 °F 10.7 °F 8.6 °F 68% 30.13 in 10.0 mi WSW 4.6 mph - N/A   Overcast
10:55 AM 17.6 °F 9.3 °F 8.6 °F 68% 30.14 in 10.0 mi West 5.8 mph - N/A   Overcast
11:15 AM 17.6 °F 12.3 °F 8.6 °F 68% 30.13 in 10.0 mi SW 3.5 mph - N/A   Overcast
11:35 AM 19.4 °F 11.5 °F 8.6 °F 63% 30.12 in 10.0 mi SW 5.8 mph - N/A   Overcast
11:55 AM 19.4 °F 14.3 °F 8.6 °F 63% 30.11 in 10.0 mi SSW 3.5 mph - N/A   Overcast
12:15 PM 19.4 °F 11.5 °F 10.4 °F 68% 30.10 in 7.0 mi SSW 5.8 mph - N/A Snow Light Snow
12:35 PM 21.2 °F 11.7 °F 12.2 °F 68% 30.10 in 4.0 mi WSW 8.1 mph - N/A Snow Light Snow
12:55 PM 21.2 °F 12.6 °F 15.8 °F 80% 30.09 in 3.0 mi SW 6.9 mph - N/A Snow Light Snow
1:15 PM 21.2 °F 11.7 °F 15.8 °F 80% 30.08 in 10.0 mi SW 8.1 mph - N/A   Overcast
1:35 PM 21.2 °F 12.6 °F 15.8 °F 80% 30.06 in 10.0 mi South 6.9 mph - N/A   Overcast
1:55 PM 23.0 °F 13.1 °F 17.6 °F 80% 30.05 in 5.0 mi SSW 9.2 mph - N/A   Haze
2:15 PM 23.0 °F 13.1 °F 17.6 °F 80% 30.04 in 10.0 mi SSW 9.2 mph - N/A   Overcast
2:35 PM 24.8 °F 14.0 °F 19.4 °F 80% 30.03 in 10.0 mi SSW 11.5 mph - N/A   Overcast
2:55 PM 24.8 °F 14.0 °F 19.4 °F 80% 30.02 in 10.0 mi SSW 11.5 mph - N/A   Overcast
3:15 PM 24.8 °F 13.4 °F 19.4 °F 80% 30.01 in 4.0 mi SSW 12.7 mph - N/A Snow Snow
3:35 PM 24.8 °F 13.4 °F 19.4 °F 80% 30.00 in 0.8 mi SSW 12.7 mph - N/A Snow Light Snow
3:55 PM 24.8 °F 14.6 °F 21.2 °F 86% 30.00 in 0.8 mi SSW 10.4 mph - N/A Snow Light Snow
4:15 PM 24.8 °F 14.6 °F 21.2 °F 86% 29.99 in 1.0 mi SSW 10.4 mph - N/A Snow Light Snow
4:35 PM 24.8 °F 14.6 °F 21.2 °F 86% 29.98 in 2.5 mi SSW 10.4 mph - N/A Snow Light Snow
4:55 PM 24.8 °F 14.6 °F 21.2 °F 86% 29.97 in 1.5 mi SSW 10.4 mph - N/A Snow Light Snow
5:15 PM 24.8 °F 15.3 °F 23.0 °F 93% 29.97 in 0.5 mi SW 9.2 mph - N/A Snow Snow
5:35 PM 26.6 °F 18.2 °F 24.8 °F 93% 29.98 in 5.0 mi WSW 8.1 mph - N/A Snow Light Snow
5:55 PM 28.4 °F 19.1 °F 24.8 °F 86% 29.97 in 7.0 mi WSW 10.4 mph - N/A Snow Light Snow
6:35 PM 26.6 °F 18.2 °F 24.8 °F 93% 29.96 in 7.0 mi SW 8.1 mph - N/A   Overcast
6:55 PM 28.4 °F 19.7 °F 26.6 °F 93% 29.96 in 7.0 mi WSW 9.2 mph - N/A   Overcast
7:15 PM 30.2 °F 21.9 °F 26.6 °F 86% 29.96 in 10.0 mi West 9.2 mph - N/A   Mostly Cloudy
7:35 PM 35.6 °F 24.0 °F 28.4 °F 75% 29.97 in 10.0 mi NW 23.0 mph 31.1 mph N/A   Overcast
7:55 PM 35.6 °F 24.8 °F 30.2 °F 81% 29.97 in 10.0 mi NW 19.6 mph 27.6 mph N/A   Overcast
8:15 PM 35.6 °F 24.2 °F 28.4 °F 75% 29.98 in 10.0 mi NW 21.9 mph 29.9 mph N/A   Overcast
8:35 PM 35.6 °F 24.0 °F 28.4 °F 75% 29.98 in 10.0 mi NNW 23.0 mph 31.1 mph 0.01 in   Overcast
8:55 PM 32.0 °F 16.7 °F 26.6 °F 80% 29.99 in 1.8 mi NW 34.5 mph 46.0 mph 0.01 in Snow Light Snow
9:15 PM 30.2 °F 18.1 °F 24.8 °F 80% 30.01 in 10.0 mi NNW 18.4 mph 29.9 mph N/A   Scattered Clouds
9:35 PM 30.2 °F 15.9 °F 24.8 °F 80% 30.02 in 5.0 mi NNW 26.5 mph 34.5 mph N/A   Haze
9:55 PM 28.4 °F 13.5 °F 21.2 °F 74% 30.03 in 7.0 mi NW 26.5 mph 33.4 mph N/A   Mostly Cloudy
10:15 PM 24.8 °F 9.3 °F 17.6 °F 74% 30.03 in 5.0 mi NNW 24.2 mph 35.7 mph N/A   Haze
10:35 PM 24.8 °F 10.0 °F 15.8 °F 69% 30.03 in 10.0 mi NNW 21.9 mph 32.2 mph N/A   Clear
10:55 PM 23.0 °F 8.3 °F 15.8 °F 74% 30.04 in 10.0 mi NW 19.6 mph 26.5 mph N/A   Clear
11:15 PM 21.2 °F 6.0 °F 15.8 °F 80% 30.05 in 10.0 mi NW 19.6 mph 28.8 mph N/A   Clear
11:35 PM 21.2 °F 5.6 °F 14.0 °F 74% 30.07 in 10.0 mi NW 20.7 mph 27.6 mph N/A   Clear
11:55 PM 21.2 °F 6.8 °F 14.0 °F 74% 30.08 in 10.0 mi NW 17.3 mph 21.9 mph N/A   Scattered Clouds